Location: *
(43.7000°S, 168.7000°W)
Time: 14:59:30
(UTC+00:00)

USA 229 - Pass Details

Date: 07 July 2020
Orbit: 980 x 1233 km, 63.4° (Epoch: 24 June)

Event Time Altitude Azimuth Distance (km) Brightness Sun altitude
Exits shadow 17:45:12 - 217° (SW) 3,146 5.7 -11.0°
Reaches altitude 10° 17:45:48 10° 217° (SW) 2,930 5.5 -10.9°
Maximum altitude 17:52:43 87° 128° (SE) 1,041 3.7 -9.7°
Drops below altitude 10° 17:59:13 10° 36° (NE) 2,762 6.9 -8.6°
Sets 18:01:45 0° 35° (NE) 3,690 7.7 -8.2°
